OneWeb SL0621

operational
NORAD ID: 55162 Int'l Des: 2023-004 Owner: ONEWEBN Country: UK Constellation: oneweb
LEOCIRCULARPOLARONEWEB_TYPE

About OneWeb SL0621

Description loading...

Live Position

Loading 3D Globe...

Upcoming Passes

Altitude History

Altitude vs Time

uPlot chart will show altitude changes over time

Two-Line Element Set

1 55162U 23004Y 25352.57088661 .00000358 00000-0 97494-3 0 9998
2 55162 87.8860 57.0210 0001891 108.4347 251.6986 13.11414639142130
Epoch: Dec 18, 2025 • Age: 7 hours

Current Status

Altitude 1220.9 km
Velocity 7.24 km/s
Sub-Earth Point 0.77°N, 13.82°E
Launch Date Jan 10, 2023
Age 2.9 years
Type internet

Technical Details

Classification Payload
Mass 148.00 kg
Dry Mass 140.00 kg
Total Mass 148.00 kg
Length 1.30 m
Diameter 1.00 m
Span 5.00 m
Shape Trapezoid+2 pan
Manufacturer ONEWUS
Bus Type ARROW
Phase Status In Orbit
Owner/State ONEWEBN/UK

Large Constellations

Loading constellations...